Temp
59 61 63 64 64 65 65 65 65 66 67 68 69 69 70 70 70 69 68 65 66 69 74 78 77 76 74 73 72 72 72 72 71 71 70 69 69 69 69 69 69 68 68
57 58 60 62 61 62 62 63 62 64 64 65 66 66 67 68 70 69 69 66 64 66 66 67 73 78 76 74 72 71 71 72 71 71 70 69 69 69 68 68 68 68 68
57 59 58 57 56 59 57 57 57 58 60 62 64 65 65 66 66 66 66 66 66 64 65 66 68 68 76 75 73 71 71 71 71 71 71 69 69 68 68 68 68 68 68
55 54 55 53 55 57 56 55 54 53 54 56 56 59 62 64 65 65 65 66 66 67 65 67 67 67 66 65 72 72 71 71 71 71 70 69 69 68 68 68 67 67 67
53 52 52 51 53 54 55 55 52 51 51 52 53 56 57 60 62 64 64 64 65 65 66 65 64 63 65 65 65 71 74 72 71 71 71 70 69 68 68 68 67 67 67
51 50 51 50 51 53 51 51 50 51 50 50 53 54 54 56 59 60 60 63 62 63 65 65 63 62 62 64 65 67 71 74 73 71 71 71 69 69 68 67 67 67 67
48 47 47 48 49 48 48 49 49 48 48 51 48 49 51 54 55 58 60 61 62 63 63 64 63 63 63 62 64 65 68 73 74 73 72 71 70 67 67 67 67 67 67
45 46 44 45 46 46 47 47 47 46 48 51 47 46 46 50 51 53 55 57 59 61 62 63 64 65 64 63 62 65 66 68 72 73 71 71 69 68 67 67 67 67 67
44 43 43 43 46 47 45 46 47 46 45 49 50 48 47 45 48 51 53 53 53 55 58 62 64 65 65 64 63 63 62 63 67 70 72 69 69 69 69 67 67 67 67
43 42 42 42 44 45 44 45 47 46 46 44 48 52 51 50 47 44 49 52 53 54 53 55 57 60 64 65 64 61 59 58 61 66 69 71 70 70 71 69 67 67 67
44 44 44 44 43 44 44 44 44 44 45 44 44 45 47 49 51 47 46 45 50 51 53 53 55 57 61 64 64 63 58 56 56 61 65 68 71 70 69 70 67 67 67
42 43 43 43 43 43 43 43 44 44 43 43 43 44 43 44 45 44 44 46 47 49 53 53 51 53 57 61 62 57 56 55 54 56 59 62 66 70 69 69 69 68 67
39 40 42 41 41 42 43 43 42 42 41 41 40 40 42 42 42 43 42 43 43 47 49 53 52 52 57 54 55 54 56 53 53 54 56 59 62 64 66 67 68 69 69
39 40 40 40 40 40 41 42 41 41 40 39 38 38 39 40 40 40 39 38 37 42 47 49 54 53 52 51 52 50 53 51 49 49 52 54 57 60 62 63 64 65 67
40 37 38 37 38 38 38 40 38 38 39 38 36 36 36 38 39 39 39 39 37 35 38 46 45 48 49 52 49 46 47 51 49 48 47 49 51 55 57 59 61 62 64
37 35 37 37 36 37 37 38 37 37 36 33 34 32 33 35 37 38 37 37 37 35 35 42 43 46 45 46 47 45 46 48 48 47 46 47 47 50 53 54 55 59 61
35 33 33 32 33 35 36 35 35 34 33 31 31 30 31 33 33 36 35 35 35 36 33 37 42 42 41 40 41 41 44 47 45 47 46 44 45 46 48 51 50 52 54
33 33 32 31 32 33 33 33 32 32 30 31 29 29 29 33 32 33 33 33 32 35 33 33 38 37 37 38 39 40 42 46 44 46 43 44 44 46 46 46 46 48 48
31 30 30 30 31 32 33 33 30 29 28 28 29 28 28 29 29 31 31 31 31 34 34 33 31 35 35 36 36 38 39 39 43 44 42 43 43 44 45 45 43 43 46
29 28 29 29 31 33 33 32 29 28 28 27 28 29 29 28 28 29 29 29 30 31 32 31 29 30 29 32 33 31 32 35 37 40 40 41 42 42 42 42 42 43 43
28 28 29 29 31 33 33 29 28 27 27 27 28 29 30 29 31 30 28 27 28 28 28 28 26 27 26 26 25 29 28 30 35 34 34 37 36 37 38 39 41 42 42
27 27 27 28 28 32 33 32 29 26 26 26 26 27 29 28 27 28 28 28 28 26 24 23 23 22 23 25 25 26 26 26 27 34 30 30 34 33 35 37 39 40 40
24 23 24 26 26 29 31 30 28 25 24 23 22 24 28 29 26 26 25 25 24 28 27 22 20 21 22 24 24 25 25 26 24 30 28 26 31 29 33 37 39 39 39
14 14 19 20 24 28 30 29 27 23 22 22 22 24 22 24 25 24 23 20 18 18 23 24 21 21 22 25 23 25 24 25 24 29 26 21 27 26 30 29 37 38 38
15 12 15 19 19 21 29 28 24 20 18 18 22 23 23 23 28 25 19 17 14 14 20 24 24 24 24 26 25 21 18 20 17 18 22 21 24 23 24 21 30 36 36
14 18 16 15 24 16 30 28 20 16 15 17 18 20 29 26 28 26 17 15 12 12 12 13 13 14 16 17 22 17 16 16 15 10 20 18 20 21 20 22 28 29 30
MSLP
1016.20 1016.03 1015.61 1015.26 1015.11 1015.20 1015.15 1014.84 1014.61 1014.26 1014.22 1014.09 1013.72 1013.70 1013.48 1013.74 1013.92 1013.78 1013.89 1014.39 1014.58 1014.69 1015.11 1014.95 1014.66 1014.57 1014.84 1015.12 1014.93 1015.25 1015.75 1016.07 1016.41 1016.85 1017.36 1017.64 1017.94 1018.28 1018.61 1018.96 1019.24 1019.44 1019.76
1016.60 1016.50 1016.29 1015.93 1015.37 1015.24 1015.36 1015.36 1015.16 1014.77 1014.64 1014.31 1014.18 1013.82 1013.76 1013.45 1013.22 1013.01 1013.15 1013.89 1014.07 1014.23 1014.37 1015.25 1015.03 1014.13 1014.21 1014.44 1014.64 1014.50 1014.87 1015.48 1015.86 1016.30 1016.74 1017.09 1017.47 1017.77 1018.06 1018.51 1018.90 1019.11 1019.40
1017.31 1017.12 1016.79 1016.76 1016.44 1015.79 1015.55 1015.46 1015.49 1015.26 1015.16 1014.96 1014.64 1014.09 1013.63 1013.33 1013.06 1013.10 1013.27 1013.48 1013.26 1013.52 1013.63 1013.24 1014.01 1013.25 1012.95 1013.09 1013.21 1013.63 1013.93 1014.61 1015.21 1015.53 1016.13 1016.52 1016.83 1017.13 1017.46 1017.86 1018.40 1018.79 1019.06
1017.93 1017.74 1017.79 1017.52 1017.09 1016.59 1016.19 1016.03 1015.96 1015.92 1015.85 1015.63 1015.05 1014.35 1013.83 1013.32 1012.89 1012.80 1012.97 1013.12 1012.62 1012.77 1012.76 1012.55 1013.40 1013.17 1011.01 1011.74 1012.87 1012.91 1013.54 1014.02 1014.43 1014.95 1015.30 1015.88 1016.22 1016.56 1016.82 1017.12 1017.61 1018.16 1018.48
1018.80 1018.63 1018.45 1018.34 1017.83 1017.27 1016.97 1017.07 1016.49 1016.33 1016.37 1016.00 1015.42 1014.57 1013.84 1013.25 1012.85 1012.43 1012.56 1012.86 1012.86 1012.74 1012.36 1012.14 1012.53 1011.85 1012.15 1012.57 1012.71 1012.39 1013.27 1013.67 1014.09 1014.26 1014.69 1015.07 1015.52 1015.77 1016.16 1016.47 1016.93 1017.40 1017.91
1019.52 1019.25 1019.12 1018.92 1018.39 1017.98 1017.56 1017.73 1017.56 1016.81 1016.52 1016.22 1015.31 1014.40 1013.74 1013.15 1012.64 1012.42 1012.47 1012.18 1012.08 1011.96 1011.97 1011.98 1011.79 1011.28 1011.57 1012.37 1012.60 1012.52 1013.01 1013.45 1013.10 1013.50 1013.45 1013.92 1014.64 1014.95 1015.31 1015.71 1016.14 1016.70 1017.19
1020.21 1020.03 1019.77 1019.53 1019.02 1018.70 1018.62 1018.31 1018.06 1017.20 1016.58 1016.53 1015.64 1014.61 1013.32 1012.62 1012.35 1012.22 1012.24 1012.11 1012.00 1011.86 1011.86 1012.05 1012.06 1011.88 1012.44 1012.54 1012.29 1012.08 1012.54 1013.03 1012.59 1012.63 1013.02 1012.86 1013.29 1014.08 1014.45 1014.74 1015.19 1015.75 1016.26
1021.01 1020.63 1020.40 1020.04 1019.76 1019.58 1019.27 1018.93 1018.59 1018.07 1017.24 1017.22 1016.84 1016.27 1015.02 1013.43 1012.92 1012.39 1012.32 1012.29 1012.11 1011.80 1011.87 1011.73 1011.83 1012.12 1012.08 1011.87 1011.46 1011.68 1011.97 1011.85 1011.98 1012.24 1012.29 1012.30 1012.61 1013.03 1013.39 1013.85 1014.03 1014.65 1015.24
1021.52 1021.36 1021.13 1020.74 1020.26 1019.92 1019.77 1019.53 1019.13 1018.75 1018.34 1017.77 1017.26 1016.96 1016.11 1015.44 1014.82 1012.99 1012.44 1012.34 1012.48 1012.55 1012.35 1012.34 1012.14 1011.74 1011.49 1011.13 1011.52 1011.33 1011.31 1011.41 1011.45 1011.31 1011.53 1011.42 1011.50 1011.98 1012.33 1012.82 1013.16 1013.45 1014.21
1021.66 1021.48 1021.42 1021.17 1020.77 1020.40 1020.18 1019.92 1019.62 1019.33 1018.95 1018.27 1017.55 1017.00 1016.80 1016.40 1015.76 1014.55 1013.25 1012.55 1012.36 1012.49 1012.65 1012.37 1012.20 1011.78 1011.30 1011.20 1010.87 1010.76 1010.90 1010.86 1010.61 1010.65 1010.61 1010.46 1010.32 1010.82 1011.30 1011.88 1012.09 1012.44 1012.89
1021.82 1021.50 1021.35 1021.29 1021.08 1020.76 1020.50 1020.25 1019.91 1019.59 1019.31 1018.88 1018.43 1018.00 1017.24 1016.44 1015.99 1015.77 1014.30 1013.52 1013.19 1012.97 1013.02 1012.95 1012.53 1011.84 1011.44 1010.91 1010.77 1010.74 1010.20 1010.04 1010.33 1010.28 1010.00 1009.32 1009.28 1009.54 1009.88 1010.58 1010.90 1011.38 1011.90
1022.35 1022.01 1021.78 1021.64 1021.36 1020.94 1020.70 1020.60 1020.19 1019.98 1019.75 1019.43 1019.05 1018.63 1018.14 1017.48 1016.76 1016.35 1015.48 1014.60 1014.10 1013.33 1013.27 1013.19 1012.65 1012.44 1011.63 1011.08 1010.84 1010.77 1010.39 1010.02 1009.76 1009.29 1008.73 1008.71 1008.82 1008.48 1008.57 1009.24 1009.76 1010.30 1010.64
1022.66 1022.47 1022.23 1022.00 1021.68 1021.30 1021.12 1020.87 1020.59 1020.44 1020.27 1019.96 1019.67 1019.21 1018.67 1018.31 1017.94 1017.22 1016.51 1015.66 1014.97 1014.32 1013.87 1012.91 1012.77 1012.40 1012.16 1011.99 1011.42 1010.94 1009.97 1009.71 1009.12 1008.56 1008.16 1007.70 1007.89 1008.15 1007.99 1008.25 1008.78 1009.13 1009.29
1023.10 1022.89 1022.68 1022.49 1022.11 1021.85 1021.62 1021.31 1021.18 1020.96 1020.74 1020.60 1020.40 1019.92 1019.40 1019.04 1018.55 1017.98 1017.42 1016.83 1015.72 1014.74 1014.00 1013.45 1013.04 1012.51 1012.58 1012.26 1011.61 1011.27 1010.55 1009.73 1009.86 1008.92 1007.97 1007.53 1007.57 1007.49 1007.45 1007.23 1007.64 1007.62 1008.19
1023.11 1023.15 1023.18 1023.07 1022.75 1022.43 1022.16 1021.81 1021.71 1021.50 1021.26 1021.34 1021.14 1020.79 1020.14 1019.73 1019.14 1018.54 1018.10 1017.56 1016.81 1015.49 1014.42 1013.58 1013.59 1013.36 1013.08 1012.41 1012.27 1011.83 1011.16 1010.12 1009.68 1009.03 1008.37 1007.19 1006.91 1007.09 1006.85 1006.58 1006.41 1006.26 1006.86
1023.84 1023.84 1023.68 1023.69 1023.61 1022.97 1022.63 1022.41 1022.36 1022.30 1021.89 1022.22 1022.09 1021.78 1021.05 1020.34 1019.69 1019.18 1018.75 1018.30 1017.65 1017.06 1016.08 1015.34 1015.00 1014.43 1014.06 1013.45 1012.69 1012.18 1011.40 1010.58 1009.93 1009.37 1008.61 1007.92 1007.37 1006.95 1006.59 1006.19 1006.21 1005.37 1006.10
1024.51 1024.52 1024.54 1024.64 1024.37 1023.62 1023.19 1023.16 1023.07 1022.98 1022.74 1023.19 1022.86 1022.70 1021.96 1020.95 1020.17 1019.71 1019.26 1018.77 1018.17 1017.57 1016.81 1015.98 1015.43 1015.20 1014.75 1014.30 1013.49 1012.82 1011.57 1010.75 1010.51 1009.89 1009.18 1008.85 1008.13 1008.07 1007.17 1006.53 1006.22 1005.78 1003.66
1025.23 1025.09 1025.04 1025.13 1024.83 1024.25 1023.84 1023.90 1023.87 1023.85 1023.58 1023.74 1023.82 1023.35 1022.54 1021.52 1020.89 1020.32 1019.88 1019.38 1018.84 1018.15 1017.54 1016.73 1016.21 1016.01 1015.66 1015.10 1014.25 1013.27 1012.38 1011.78 1011.18 1010.56 1009.87 1009.51 1008.94 1008.51 1006.90 1006.16 1005.83 1005.38 1005.40
1025.99 1025.91 1025.63 1025.57 1025.16 1024.72 1024.25 1024.58 1024.67 1024.65 1024.63 1024.45 1024.48 1023.88 1023.24 1022.36 1021.60 1021.12 1020.73 1020.02 1019.63 1019.15 1018.48 1017.92 1017.55 1017.03 1016.54 1015.65 1014.51 1013.82 1013.20 1012.67 1011.45 1011.15 1010.13 1009.64 1009.07 1008.75 1008.09 1008.05 1007.59 1006.72 1006.55
1026.55 1026.45 1026.29 1026.03 1025.48 1024.90 1024.90 1025.06 1025.23 1025.35 1025.20 1025.22 1024.96 1024.46 1023.83 1022.77 1022.37 1022.22 1021.74 1021.44 1020.86 1019.88 1019.16 1018.72 1018.29 1017.84 1017.32 1016.49 1015.88 1015.03 1013.67 1013.30 1012.42 1011.98 1011.21 1010.43 1010.06 1009.47 1008.74 1008.21 1008.61 1008.35 1007.32
1027.07 1026.87 1026.70 1026.47 1025.84 1025.39 1025.34 1025.65 1025.83 1025.84 1025.85 1025.66 1025.29 1024.69 1024.18 1023.79 1023.53 1023.45 1023.05 1022.42 1021.42 1020.70 1020.22 1019.51 1019.31 1018.82 1018.15 1017.22 1016.84 1016.28 1015.41 1014.41 1013.34 1013.13 1012.49 1011.59 1011.06 1010.18 1009.40 1009.24 1009.30 1008.70 1008.19
1027.49 1027.42 1027.35 1027.08 1026.64 1026.21 1026.03 1026.18 1026.53 1026.67 1026.57 1026.22 1025.64 1025.36 1024.64 1024.65 1024.67 1024.34 1023.80 1023.12 1022.44 1021.67 1021.34 1021.21 1020.99 1020.43 1019.93 1019.27 1018.73 1017.73 1016.57 1015.25 1014.23 1013.56 1013.56 1012.53 1012.21 1011.56 1011.02 1010.68 1009.92 1009.54 1009.11
1028.20 1028.21 1028.09 1027.81 1027.41 1027.05 1026.73 1026.82 1027.22 1027.29 1027.13 1026.86 1026.46 1025.92 1025.31 1025.12 1025.03 1024.78 1024.46 1024.27 1023.85 1022.72 1022.60 1022.62 1022.34 1021.90 1021.28 1020.78 1020.28 1018.92 1017.95 1017.18 1016.46 1015.83 1014.73 1013.67 1013.19 1012.69 1011.87 1011.27 1010.31 1009.91 1009.66
1028.87 1028.89 1028.79 1028.53 1028.05 1027.60 1027.45 1027.48 1027.64 1027.77 1027.57 1027.23 1026.89 1026.49 1026.23 1025.85 1025.52 1025.57 1025.20 1025.02 1024.82 1024.19 1023.60 1023.35 1023.32 1023.01 1022.44 1021.76 1021.21 1020.30 1019.39 1018.45 1017.11 1016.51 1016.33 1015.32 1014.27 1013.51 1012.29 1011.80 1011.06 1011.04 1010.33
1029.55 1029.55 1029.56 1029.22 1028.62 1028.12 1027.98 1028.06 1028.25 1028.24 1028.12 1027.85 1027.48 1026.99 1026.63 1026.11 1026.08 1026.37 1026.18 1025.84 1025.66 1025.32 1024.95 1024.37 1023.97 1023.65 1023.24 1022.40 1021.69 1021.03 1019.89 1018.98 1018.54 1017.95 1017.99 1017.38 1016.10 1014.66 1012.82 1012.28 1012.21 1011.47 1010.93
1030.02 1030.14 1030.17 1029.80 1029.39 1028.78 1028.06 1028.32 1028.87 1029.03 1028.80 1028.49 1028.14 1027.81 1026.78 1026.69 1026.60 1026.58 1026.62 1026.44 1026.14 1026.16 1025.65 1025.08 1024.88 1024.42 1024.03 1023.57 1022.63 1022.18 1021.94 1021.03 1020.54 1019.41 1019.28 1018.57 1017.45 1016.54 1014.32 1012.31 1012.16 1011.37 1010.92
Wind_Speed
6 5 4 2 4 4 5 5 4 3 4 5 5 6 5 6 6 3 0 3 4 8 20 25 25 25 24 23 23 22 21 20 20 20 20 19 18 17 17 18 18 17 18
6 5 6 6 6 6 6 6 7 7 6 5 5 4 6 5 6 6 5 3 4 6 9 18 23 27 24 24 22 22 23 22 20 20 21 21 20 19 18 18 18 19 19
9 8 6 8 7 6 6 6 7 7 7 7 7 5 4 5 4 5 3 4 3 6 7 29 20 30 30 28 25 23 23 22 21 21 21 21 21 21 20 19 19 19 19
11 8 7 8 8 6 6 5 5 6 5 5 6 7 6 5 6 6 4 6 8 9 17 33 26 23 5 19 19 22 21 21 21 21 21 21 22 22 22 22 21 21 21
11 7 8 7 8 7 7 7 5 4 4 5 7 7 6 6 6 4 5 8 10 6 7 7 12 8 8 2 13 16 21 20 21 22 22 22 23 23 23 23 22 22 22
11 8 7 8 8 7 8 8 8 6 4 6 8 7 6 6 6 4 4 5 4 5 7 7 5 4 10 12 2 8 22 21 24 25 26 24 24 24 24 24 24 23 23
10 10 7 8 8 8 8 9 6 9 3 8 4 5 5 4 3 2 2 3 4 5 6 7 5 3 4 10 8 8 19 25 26 24 25 25 24 24 25 26 25 25 25
11 10 9 7 8 6 8 9 9 6 3 7 4 4 5 5 6 4 2 3 6 4 3 5 6 8 7 5 8 21 26 27 26 26 27 25 24 24 25 27 27 27 27
9 9 8 7 8 7 6 8 8 9 6 6 8 3 3 3 7 4 4 3 5 4 5 6 7 6 7 6 7 10 16 21 24 26 29 24 20 23 24 27 27 28 26
8 8 7 7 8 5 7 7 7 7 6 6 5 5 3 3 3 6 3 4 6 5 6 6 5 9 8 5 10 11 14 19 21 26 28 28 26 26 28 27 27 28 28
8 9 9 8 7 5 6 7 7 7 5 5 5 4 5 5 6 5 10 3 5 4 7 6 9 6 9 7 6 8 16 14 17 24 27 25 31 28 26 30 27 28 28
6 9 9 8 8 7 7 6 7 7 6 6 5 5 5 3 4 3 4 10 12 5 8 8 5 4 6 7 10 14 13 9 12 16 21 22 25 27 26 27 27 28 27
5 7 8 8 7 9 8 7 7 7 7 6 7 6 5 5 5 5 6 7 6 6 6 5 3 6 6 8 10 17 16 15 15 16 20 22 23 22 20 20 26 28 26
4 6 8 8 10 10 9 7 6 6 7 7 10 8 6 6 6 6 6 7 5 4 4 5 5 6 9 8 10 21 13 14 17 21 16 16 18 22 27 24 21 20 26
3 6 7 8 9 9 10 7 6 8 7 8 9 9 7 6 6 6 6 6 5 4 3 3 4 11 10 9 13 13 13 20 16 19 22 19 14 18 19 23 27 25 26
8 8 9 9 8 9 9 9 8 9 8 9 8 11 10 8 6 6 6 6 5 4 3 3 6 10 11 12 14 13 13 19 17 18 21 23 24 19 19 17 19 29 30
8 9 9 8 8 9 9 7 8 10 11 11 11 11 12 11 8 6 7 6 6 5 5 4 6 10 11 13 13 12 11 10 11 15 21 22 22 21 14 17 14 12 12
9 7 8 8 8 9 8 8 10 10 11 11 11 11 12 10 12 10 8 10 9 7 6 7 7 8 12 13 12 12 12 11 11 19 22 19 20 19 22 22 16 12 10
9 8 8 8 8 8 7 10 10 10 10 11 10 12 12 12 12 10 10 10 10 7 7 6 7 7 9 11 13 11 11 12 10 20 20 21 21 23 22 22 26 24 17
8 8 8 7 8 8 9 10 10 10 10 10 10 10 12 13 13 12 11 11 10 8 8 7 7 9 10 13 10 11 12 11 7 11 17 17 21 22 24 23 24 25 22
8 8 8 8 7 8 7 9 10 10 10 10 11 11 13 17 19 16 7 10 11 9 8 9 9 9 12 13 16 12 11 11 4 11 12 8 12 12 14 18 20 27 25
7 8 8 9 8 8 17 18 10 8 10 11 11 10 11 17 14 18 20 22 19 12 13 10 9 11 13 12 12 11 11 13 7 9 13 6 11 11 11 9 19 24 24
7 7 7 6 9 9 16 18 15 7 8 8 8 9 11 11 15 12 17 19 20 23 21 11 11 11 10 13 13 12 13 11 7 8 12 3 9 11 9 9 20 26 23
4 3 5 6 6 10 16 17 16 8 7 8 8 9 8 10 17 14 13 13 12 12 14 10 10 10 10 12 12 11 11 10 7 5 15 5 8 13 9 4 17 23 23
4 4 3 6 7 5 17 16 9 5 6 7 8 6 7 9 23 22 11 11 11 12 14 21 20 21 22 24 22 9 12 11 7 3 13 8 9 12 5 3 9 20 18
4 4 5 5 13 6 17 17 10 3 5 4 6 7 21 15 22 23 11 11 12 12 11 12 10 12 13 14 23 13 10 10 9 4 11 10 10 12 8 4 12 12 9
Wind_Direction
19 355 348 10 28 7 0 350 336 343 331 291 280 271 235 219 233 236 290 8 327 313 286 256 224 211 207 211 199 196 201 203 201 198 198 196 195 195 195 190 188 184 183
19 8 352 357 32 25 12 4 0 358 342 334 324 307 279 261 233 222 213 125 327 345 350 321 289 226 215 213 211 199 199 206 204 202 200 197 198 198 196 195 195 191 190
19 20 21 11 1 12 30 22 7 8 3 346 336 317 305 274 251 250 234 232 256 219 278 270 283 308 214 211 208 206 199 202 208 205 204 202 199 198 199 197 197 196 195
24 27 16 16 357 4 17 22 18 357 357 338 328 317 310 272 254 244 204 226 215 214 217 236 243 248 346 21 265 205 207 206 206 210 208 205 202 201 202 200 198 200 197
24 24 26 9 360 7 12 360 6 21 334 336 315 293 282 282 261 250 213 217 218 210 211 226 237 204 213 117 357 256 223 214 215 213 213 210 206 203 204 203 203 202 202
34 28 21 19 11 13 21 359 351 351 326 337 311 296 277 263 264 235 216 241 226 241 211 205 206 216 183 189 6 1 240 238 221 221 213 209 214 208 204 203 206 206 205
28 29 24 14 11 15 15 2 338 352 346 345 320 332 301 285 296 279 251 241 249 225 212 208 220 248 226 204 212 249 238 252 246 228 227 217 214 213 208 203 205 208 207
32 27 18 11 13 8 10 4 5 345 341 348 336 282 323 331 355 321 24 33 27 343 267 241 246 247 251 218 221 219 238 251 254 245 235 223 221 213 210 210 205 208 208
40 29 19 5 16 13 7 357 1 357 341 327 332 290 325 315 336 310 335 33 50 5 15 10 330 301 276 261 230 225 232 243 251 255 245 232 224 227 219 213 209 208 209
36 29 20 11 13 9 5 354 353 341 337 329 329 346 296 296 308 310 316 327 11 2 3 339 341 330 321 286 260 241 234 234 243 252 252 237 222 227 234 225 210 210 209
29 22 20 9 9 6 359 350 343 338 348 336 346 329 316 307 262 263 289 310 347 4 327 354 330 321 328 326 333 313 267 251 252 249 251 246 231 222 222 233 215 212 211
20 20 17 14 9 10 6 353 7 7 1 352 348 339 331 323 328 308 299 310 308 318 335 305 295 315 325 335 343 344 327 296 274 264 252 248 251 230 219 221 224 215 213
28 19 17 20 17 11 9 13 14 16 9 10 2 350 332 345 331 308 294 301 301 318 298 309 357 323 2 350 334 341 331 329 315 302 266 240 237 241 228 229 223 220 219
24 19 26 23 22 17 6 20 22 23 21 23 13 3 349 347 338 330 315 318 304 281 286 331 295 12 355 339 340 348 333 334 349 352 308 254 239 240 241 227 233 220 223
22 52 36 27 25 23 10 28 25 23 35 22 14 3 2 347 346 344 331 320 310 319 335 16 339 357 336 346 347 343 333 332 337 356 353 3 336 269 246 240 234 226 225
41 43 35 25 16 24 25 31 37 27 32 33 21 5 3 356 350 354 356 344 358 334 284 357 330 335 352 350 346 338 329 327 353 348 358 5 0 316 277 257 251 246 229
59 56 35 22 12 24 22 44 53 38 31 47 23 7 3 1 357 3 5 357 1 352 312 311 334 1 354 349 342 339 338 340 344 345 14 2 7 352 318 275 270 252 240
52 52 45 30 20 24 20 43 45 38 41 38 28 15 8 7 10 6 8 9 3 6 345 338 0 359 1 354 342 346 345 348 336 14 5 1 359 348 7 351 323 307 299
64 46 40 34 21 18 24 69 53 45 44 40 27 21 16 14 15 6 8 9 6 356 7 16 4 5 359 359 350 354 354 350 350 6 359 1 356 8 19 20 26 11 343
64 54 40 28 23 38 52 67 58 53 49 44 32 27 31 26 22 7 17 8 8 360 13 19 16 13 4 2 0 352 356 353 1 6 357 1 5 4 12 15 15 10 9
72 54 48 36 32 39 69 65 61 52 48 45 39 33 34 36 34 29 21 12 15 16 20 21 20 10 11 6 8 344 352 341 338 23 352 360 358 356 3 8 7 8 12
66 60 46 49 43 56 71 72 71 59 49 42 41 31 40 37 34 31 33 32 30 31 33 23 22 18 12 6 358 354 352 357 360 18 353 336 2 355 353 355 6 7 8
72 54 41 40 58 61 70 71 68 57 49 35 25 29 36 40 32 27 30 31 28 32 41 32 26 20 6 3 355 357 357 355 335 0 355 329 355 352 343 340 7 5 7
66 49 36 28 49 66 72 72 66 49 38 30 23 26 20 43 40 32 30 29 23 20 28 29 28 25 13 11 12 2 350 344 318 25 8 342 338 340 324 315 6 359 1
65 40 19 37 38 53 72 73 54 33 25 17 23 14 38 42 48 40 31 29 22 22 15 27 31 29 27 23 24 7 14 11 354 347 19 336 348 328 308 315 356 350 354
89 70 39 18 45 13 81 73 61 31 28 15 14 7 42 49 48 46 38 32 29 6 0 5 11 12 14 10 18 24 6 14 359 341 7 342 353 350 328 322 342 341 349